Regional Weather Roundup
Issued by NWS

Home | Current Version | Previous Version | Graphics & Text | Print | Product List | Glossary On
Versions: 1 2 3 4 5 6 7 8 9 10 11 12 13 14 15 16 17 18 19 20 21 22 23 24 25 26 27 28 29 30 31 32 33 34 35 36 37 38 39 40 41 42 43 44 45 46 47 48 49 50
000
ASUS43 KMPX 222201
RWRMN
WEATHER ROUNDUP FOR MINNESOTA
NATIONAL WEATHER SERVICE TWIN CITIES/CHANHASSEN MN
500 PM CDT FRI MAY 22 2015


NOTE: "FAIR" INDICATES FEW OR NO CLOUDS BELOW 12,000 FEET WITH NO
SIGNIFICANT WEATHER AND/OR OBSTRUCTIONS TO VISIBILITY. N/A MEANS
CURRENT SKY AND/OR WEATHER CONDITIONS ARE NOT AVAILABLE.

MNZ060>063-068>070-222300-
   Twin Cities Metro

CITY           SKY/WX    TMP DP  RH WIND       PRES   REMARKS
TWIN CITIES    MOSUNNY   74  35  24 VRB7      30.18F
ST PAUL        SUNNY     73  36  25 E7        30.19F
CRYSTAL        SUNNY     74  33  22 W3        30.17F
BLAINE         MOSUNNY   75  34  22 CALM      30.19F
LAKEVILLE      MOSUNNY   72  37  28 CALM      30.19F
EDEN PRAIRIE   SUNNY     74  36  25 CALM      30.18F
SOUTH ST PAUL  SUNNY     73  32  22 SE3       30.18F
LAKE ELMO      FAIR      72  37  28 CALM      30.21F
$$
MNZ001>005-007-008-013>017-022>024-027-028-222300-
   Northwest Minnesota

CITY           SKY/WX    TMP DP  RH WIND       PRES   REMARKS
BEMIDJI        SUNNY     74  36  24 NW5       30.15F
HALLOCK        MOSUNNY   79  36  21 SW20      30.09F
ROSEAU         SUNNY     75  39  27 SW15      30.11F
WARROAD        SUNNY     75  45  33 SW14G20   30.11S
THIEF RVR FALL SUNNY     75  36  23 SW14      30.15S
CROOKSTON      SUNNY     75  37  25 W7        30.14F
FOSSTON        SUNNY     75  32  20 S5        30.16S
DETROIT LAKES  SUNNY     72  32  23 S3        30.18F
MOORHEAD       SUNNY     73  36  25 SE6       30.15F
PARK RAPIDS    SUNNY     75  31  19 CALM      30.16F
MAHNOMEN       FAIR      74  35  23 W8        30.16S
$$
MNZ006-009>011-018-025>026-222300-
   North Central Minnesota

CITY           SKY/WX    TMP DP  RH WIND       PRES   REMARKS
BAUDETTE       MOSUNNY   75  37  25 W6        30.10F
FLAG ISLAND    MOSUNNY   72  37  28 SW13      30.05F
INTL FALLS     SUNNY     74  29  19 W7        30.11F
WASKISH        SUNNY     73  43  33 CALM      30.14F
BIG FORK       MOSUNNY   73  32  21 W6        30.15S
LONGVILLE      SUNNY     73  34  23 W7        30.17S
GRAND RAPIDS   SUNNY     72  36  26 NW3       30.17F
CRANE LAKE     SUNNY     72  30  21 NW8       30.13F
ORR            SUNNY     73  27  17 CALM      30.11S
COOK           SUNNY     72  34  25 SW6       30.14F
WALKER         FAIR      72  33  24 S3        30.15F
$$
MNZ012-019>021-037-222300-
   Northeast Minnesota

CITY           SKY/WX    TMP DP  RH WIND       PRES   REMARKS
DULUTH         MOSUNNY   72  32  23 NW10      30.17F
ELY            SUNNY     70  28  21 W9        30.14F
HIBBING        SUNNY     71  31  22 S5        30.15F
EVELETH        SUNNY     72  32  23 SW6       30.16F
DULUTH HARBOR  SUNNY     46  39  76 NE8       30.19F
TWO HARBORS    SUNNY     66  41  39 SE6       30.16S
SILVER BAY     SUNNY     63  34  34 SE6       30.17S
GRAND MARAIS     N/A     46  31  55 E5        30.21F
G MARAIS ARPRT SUNNY     57  25  28 S8        30.20S
$$
MNZ029>031-032-039>041-046>048-054>057-064-222300-
   West Central Minnesota

CITY           SKY/WX    TMP DP  RH WIND       PRES   REMARKS
FERGUS FALLS   SUNNY     73  36  25 E9        30.15F
WHEATON        SUNNY     72  30  21 SE6       30.16F
MORRIS         SUNNY     75  34  22 SE6       30.16S
ALEXANDRIA     SUNNY     71  32  23 S5        30.19F
ELBOW LAKE     FAIR      73  37  27 SE10      30.16F
WADENA         SUNNY     72  39  30 S7        30.17F
GLENWOOD       SUNNY     73  36  25 S3        30.19F
APPLETON       SUNNY     77  25  14 CALM      30.15F
BENSON         SUNNY     73  28  19 S6        30.16F
ORTONVILLE     SUNNY     73  30  20 NE3       30.15F
MADISON        MOSUNNY   75  28  17 CALM      30.15F
WILLMAR        FAIR      75  36  23 E8        30.18F
$$
MNZ033>034-036-042>043-049>051-058-059-222300-
   Central Minnesota

CITY           SKY/WX    TMP DP  RH WIND       PRES   REMARKS
ST CLOUD       SUNNY     72  36  26 W8        30.18F
SAUK CENTRE    FAIR      72  35  25 S6        30.18F
PAYNESVILLE    SUNNY     69  35  28 E6        30.19F
AITKIN         SUNNY     73  28  19 SW7       30.17S
PINE RIVER     SUNNY     73  43  33 S9        30.19F
BRAINERD       SUNNY     72  32  23 VRB5      30.18F
STAPLES        SUNNY     72  30  21 CALM      30.18F
LONG PRAIRIE   FAIR      72  34  25 E3        30.19F
LITTLE FALLS   SUNNY     72  30  21 CALM      30.19F
LITCHFIELD     SUNNY     72  36  26 N3        30.19F
BUFFALO        SUNNY     71  32  23 CALM      30.20F
MAPLE LAKE     SUNNY     73  40  30 CALM      30.20F
$$
MNZ037-044-045-052-053-222300-
   East Central Minnesota

CITY           SKY/WX    TMP DP  RH WIND       PRES   REMARKS
PRINCETON      SUNNY     73  36  25 W3        30.19F
MORA           SUNNY     70  36  28 SW6       30.20F
CAMBRIDGE      SUNNY     75  48  38 N3        30.18F
RUSH CITY      SUNNY     71  37  28 SW3       30.20F
MOOSE LAKE     SUNNY     73  36  25 SW7       30.16S
HINCKLEY       FAIR      72  39  30 S3        30.18F
CLOQUET        SUNNY     72  25  17 W6        30.17F
MCGREGOR       SUNNY     72  34  25 SW5       30.18F
$$
MNZ071>073-080-081-089-090-097-098-222300-
   Southwest Minnesota

CITY           SKY/WX    TMP DP  RH WIND       PRES   REMARKS
MONTEVIDEO     MOSUNNY   79  34  19 SW3       30.16F
GRANITE FALLS  MOSUNNY   75  28  17 CALM      30.17F
CANBY          PTSUNNY   75  33  21 CALM      30.16F
MARSHALL       PTSUNNY   75  34  22 SE5       30.15F
REDWOOD FALLS  PTSUNNY   75  31  19 VRB5      30.16F
OLIVIA         MOSUNNY   72  30  21 CALM      30.17S
PIPESTONE      CLOUDY    73  28  19 SE3       30.16F
WINDOM         CLOUDY    73  25  16 CALM      30.18F
WORTHINGTON    CLOUDY    73  30  20 S8        30.17F
JACKSON        CLOUDY    73  30  20 SW3       30.19S
TRACY          PTSUNNY   76  33  21 S5        30.16F
SLAYTON        CLOUDY    73  31  21 CALM      30.17F
$$
MNZ065>067-074>077-082>085-091>093-222300-
   South Central Minnesota

CITY           SKY/WX    TMP DP  RH WIND       PRES   REMARKS
MANKATO        PTSUNNY   72  30  21 N3        30.19S
NEW ULM        PTSUNNY   73  30  20 CALM      30.18S
ST JAMES       PTSUNNY   75  30  19 CALM      30.18F
FAIRMONT       CLOUDY    73  30  20 E6        30.18S
GLENCOE        MOSUNNY   74  40  28 NE3       30.18S
FARIBAULT      PTSUNNY   73  34  23 CALM      30.19S
OWATONNA       PTSUNNY   73  28  19 CALM      30.19S
WASECA           N/A     72  32  23 NE5       30.20S HAZE
ALBERT LEA     PTSUNNY   73  32  21 S8        30.19S
$$
MNZ078>079-086>088-094>096-222300-
   Southeast Minnesota

CITY           SKY/WX    TMP DP  RH WIND       PRES   REMARKS
ROCHESTER      PTSUNNY   72  39  30 VRB3      30.21S
RED WING       SUNNY     73  30  20 CALM      30.18F
STANTON        MOSUNNY   73  30  19 N5        30.18S
DODGE CENTER   PTSUNNY   73  28  19 N5        30.20S
WINONA         MOSUNNY   73  37  27 NE5       30.19F
AUSTIN         PTSUNNY   72  43  35 CALM      30.19S
PRESTON        PTSUNNY   70  33  25 N5        30.20F
$$
ABBREVIATIONS USED IN REMARKS
   TC - TEMPERATURES IN CELSIUS
  WCI - WIND CHILL INDEX
   HX - HEAT INDEX
  VSB - VISIBILITY
$$


USA.gov is the U.S. government's official web portal to all federal, state and local government web resources and services.